User: anonymous   Login
Location: Caltech
(34.1382°N, 118.1253°W)
Time: 18:52:23
(UTC-07:00)
Language:

RS-15 - Orbit

View from above orbital plane
View from above orbital plane
View from above satellite
View from above satellite

Ground track
Ground track

The orbit data is extracted from the following two-line orbital elements,

1 23439U 94085A   17290.49861344 -.00000041 +00000-0 +45031-4 0  9998
2 23439 064.8205 021.3397 0164983 224.7481 217.7375 11.27566577939204
Epoch (UTC): 17 October 2017 11:58:00
Eccentricity: 0.0164983
inclination: 64.8205°
perigee height: 1884 km
apogee height: 2161 km
right ascension of ascending node: 21.3397°
argument of perigee: 224.7481°
revolutions per day: 11.27566577
mean anomaly at epoch: 217.7375°
orbit number at epoch: 93920

The dashed part of the orbit path shows where the satellite is in the earth's shadow,  

DLR